Regional Weather Roundup
Issued by NWS

Home | Current Version | Previous Version | Text Only | Print | Product List | Glossary Off
Versions: 1 2 3 4 5 6 7 8 9 10 11 12 13 14 15 16 17 18 19 20 21 22 23 24 25 26 27 28 29 30 31 32 33 34 35 36 37 38 39 40 41 42 43 44 45 46 47 48 49 50

000
ASUS43 KLSX 060410
RWRMO

WEATHER SUMMARY FOR MISSOURI
NATIONAL WEATHER SERVICE SPRINGFIELD MO
1000 PM CST FRI FEB 05 2016

NOTE: "FAIR" INDICATES FEW OR NO CLOUDS BELOW 12,000 FEET WITH NO
       SIGNIFICANT WEATHER AND/OR OBSTRUCTIONS TO VISIBILITY.
       CURRENT SKY AND/OR WEATHER CONDITIONS ARE NOT AVAILABLE FOR
       CHILLICOTHE AND FARMINGTON.

MOZ001>031-035>038-043-044-053-054-060500-
...NORTHERN AND WESTERN MISSOURI...

CITY           SKY/WX    TMP DP  RH WIND       PRES   REMARKS
KANSAS CTY INT MOCLDY    33  25  72 SE6       30.27S WCI  28
KANSAS C DTWN  CLOUDY    37  25  61 CALM      30.28S
LEE`S SUMMIT   CLOUDY    37  24  59 SE3       30.28S
ST JOSEPH      CLOUDY    34  24  67 SE3       30.28S
CHILLICOTHE      N/A     32  22  66 CALM      30.30F
KIRKSVILLE     CLOUDY    31  21  66 S5        30.30S WCI  26

$$
MOZ066>068-077>081-088>096-101>105-060500-
...SOUTHWEST MISSOURI...

CITY           SKY/WX    TMP DP  RH WIND       PRES   REMARKS
SPRINGFIELD    MOCLDY    35  20  54 S5        30.28F
JOPLIN         CLOUDY    43  18  36 S9        30.29S

$$
MOZ032>034-039>042-045>050-055>058-069>072-060500-
...CENTRAL MISSOURI...

CITY           SKY/WX    TMP DP  RH WIND       PRES   REMARKS
COLUMBIA       CLOUDY    32  19  58 E5        30.30S WCI  27
JEFFERSON CITY CLOUDY    31  20  63 CALM      30.32F
ROLLA          CLOUDY    36  19  50 SE9       30.29S WCI  29
SEDALIA        CLOUDY    35  23  61 E5        30.30S
WHITEMAN AFB   CLOUDY    35  24  63 SE6       30.27F
WARRENSBURG    CLOUDY    36  25  64 E5        30.29S
OSAGE BEACH    CLOUDY    36  18  48 E3        30.30S

$$
MOZ051-052-059>065-060500-
...EAST CENTRAL MISSOURI...

CITY           SKY/WX    TMP DP  RH WIND       PRES   REMARKS
ST LOUIS INTL  PTCLDY    31  18  58 SE7       30.34F WCI  24
SPIRIT OF STL  PTCLDY    27  20  75 CALM      30.33F
ST CHARLES     PTCLDY    27  24  89 E3        30.34F

$$
MOZ072>076-082>087-097>100-106>115-060500-
...SOUTH CENTRAL AND SOUTHEAST MISSOURI...

CITY           SKY/WX    TMP DP  RH WIND       PRES   REMARKS
CAPE GIRARDEAU CLEAR     32  26  78 NE3       30.35S
FARMINGTON     CLEAR     28  22  78 CALM      30.33F
POPLAR BLUFF   CLEAR     37  24  59 CALM      30.34S
WEST PLAINS    CLEAR     39  15  37 SW5       30.31S

$$



USA.gov is the U.S. government's official web portal to all federal, state and local government web resources and services.